Preview of NWS' New Version of Forecast
This preview is not operational and should not be used for support decisions.

Regional Weather Roundup (RWR)

Issued by National Weather Service (NWS)

                            
000
ASPQ40 PGUM 220310
RWRPQ 
WEATHER ROUNDUP FOR THE MARIANAS AND MICRONESIA
NATIONAL WEATHER SERVICE TIYAN GU
100 PM CHST MON APR 22 2019

GUZ001>004-220400-
MARIANA ISLANDS-
  
CITY           SKY/WX    TMP DP  RH WIND       PRES   REMARKS
GUAM AIRPORT   MOSUNNY   88  73  62 E15G22    29.89F HX  96           
ANDERSEN AFB   PTSUNNY   86  75  70 E16G22    29.90F HX  95           
ROTA AIRPORT   MOSUNNY   86  72  62 E18       29.88F HX  92           
TINIAN AP      NOT AVBL                                               
SAIPAN AP      MOSUNNY   90  73  58 E14       29.89F HX  98           

$$

PMZ161-220400-
REPUBLIC OF PALAU-
  
CITY           SKY/WX    TMP DP  RH WIND       PRES   REMARKS
KOROR AP       PTSUNNY   86  75  70 E15G23    29.79F HX  95           
KOROR WSO      NOT AVBL                                               

$$

PMZ171>174-220400-
FEDERATED STATES OF MICRONESIA-
  
CITY           SKY/WX    TMP DP  RH WIND       PRES   REMARKS
YAP AIRPORT    MOSUNNY   90  75  62 E9        29.84F HX 100           
CHUUK AP       MOSUNNY   88  81  79 VRB6      29.77F HX 105           
POHNPEI AP     CLOUDY    88  77  70 NE14      29.78F HX 100           
POHNPEI WSO    PTSUNNY   88  77  70 E9        29.81F HX 100           
KOSRAE AP      PTSUNNY   88  75  66 NE28      29.75F HX  97           

$$

PMZ181-220400-
REPUBLIC OF THE MARSHALL ISLANDS-
  
CITY           SKY/WX    TMP DP  RH WIND       PRES   REMARKS
KWAJALEIN AP   CLOUDY    88  77  70 E20G25    29.81F HX 100           
MAJURO AP      NOT AVBL                                               
MAJURO WSO     PTSUNNY   84  77  79 E14       29.78F HX  94           

$$